Location: Lafig�re
(44.4503°N, 4.0357°E)
Time: 21:37:36
(UTC+00:00)

Tiros 1 - Visible Passes

Search period start: 21 January 2021 00:00
Search period end: 31 January 2021 00:00
Orbit: 630 x 663 km, 48.4° (Epoch: 20 January)

Date Brightness Start Highest point End Pass type
(mag) Time Alt. Az. Time Alt. Az. Time Alt. Az.
21 Jan 7.7 18:19:31 10° SW 18:23:52 41° SE 18:24:53 36° ESE visible
21 Jan 9.7 20:01:20 10° W 20:02:33 18° W 20:02:33 18° W visible
22 Jan 6.9 18:45:06 10° WSW 18:49:44 75° SSE 18:50:00 72° ESE visible
22 Jan 10.3 20:27:34 10° W 20:27:40 11° W 20:27:40 11° W visible
23 Jan 7.9 17:29:25 10° SSW 17:33:44 38° SE 17:37:23 14° E visible
23 Jan 7.5 19:11:08 10° WSW 19:15:03 59° WNW 19:15:03 59° WNW visible
24 Jan 7.1 17:54:57 10° SW 17:59:34 71° SSE 18:02:24 23° ENE visible
24 Jan 8.7 19:37:22 10° W 19:40:04 32° WNW 19:40:04 32° WNW visible
25 Jan 7.1 18:20:56 10° WSW 18:25:35 74° NNW 18:27:22 37° ENE visible
25 Jan 9.6 20:03:37 10° WNW 20:05:02 19° WNW 20:05:02 19° WNW visible
26 Jan 7.4 18:47:10 10° W 18:51:44 56° N 18:52:19 51° NNE visible
26 Jan 10.2 20:29:46 10° WNW 20:29:59 11° WNW 20:29:59 11° WNW visible
27 Jan 7.2 17:30:45 10° WSW 17:35:25 77° NNW 17:39:36 13° ENE visible
27 Jan 7.8 19:13:25 10° WNW 19:17:15 46° NNW 19:17:15 46° NNW visible
28 Jan 7.4 17:56:57 10° W 18:01:33 57° N 18:04:31 21° ENE visible
28 Jan 8.7 19:39:35 10° WNW 19:42:11 31° NW 19:42:11 31° NW visible
29 Jan 7.5 18:23:13 10° WNW 18:27:46 51° N 18:29:27 33° NE visible
29 Jan 9.5 20:05:39 10° WNW 20:07:07 20° WNW 20:07:07 20° WNW visible
30 Jan 7.2 18:49:24 10° WNW 18:53:58 56° N 18:54:25 54° NNE visible
30 Jan 10.2 20:31:42 10° WNW 20:32:05 12° WNW 20:32:05 12° WNW visible
